Regional Weather Roundup
Issued by NWS Cleveland, OH

Home | Current Version | Previous Version | Text Only | Print | Product List | Glossary Off
Versions: 1 2 3 4 5 6 7 8 9 10 11 12 13 14 15 16 17 18 19 20 21 22 23 24 25 26 27 28 29 30 31 32 33 34 35 36 37 38 39 40 41 42 43 44 45 46 47 48 49 50

000
ASUS41 KCLE 291002
RWRCLE
OHIO REGIONAL WEATHER ROUNDUP
NATIONAL WEATHER SERVICE CLEVELAND, OH
600 AM EDT FRI MAY 29 2015

NOTE: "FAIR" INDICATES FEW OR NO CLOUDS BELOW 12,000 FEET WITH NO
SIGNIFICANT WEATHER AND/OR OBSTRUCTIONS TO VISIBILITY.

OHZ001>008-015>018-024>027-034-035-043-044-291100-
   NORTHWEST OHIO

CITY           SKY/WX    TMP DP  RH WIND       PRES   REMARKS
DEFIANCE       CLEAR     62  59  90 CALM      30.14S
FINDLAY        MOCLDY    66  60  81 SE8       30.14F
TOLEDO EXPRESS PTCLDY    61  57  87 CALM      30.15S
TOLEDO EXEC    PTCLDY    62  56  80 SE3       30.16S
LIMA           CLOUDY    67  62  84 SE7       30.15S
$$

OHZ009>014-019>023-028>033-038-089-291100-
   NORTHEAST OHIO

CITY           SKY/WX    TMP DP  RH WIND       PRES   REMARKS
CLE-HOPKINS    PTCLDY    64  55  72 SE5       30.20S
CLE-LAKEFRONT  PTCLDY    66  55  67 SE8       30.17S
CUY CO. ARPT   NOT AVBL
LORAIN-ELYRIA  CLEAR     59  55  87 S5        30.18F
ASHTABULA      CLEAR     59  54  83 SE7       30.22S
AKRON-CANTON   PTCLDY    63  53  70 E6        30.20F
WOOSTER        CLEAR     59  57  93 CALM      30.20S
MANSFIELD      PTCLDY    62  57  83 SE5       30.20R
YOUNGSTOWN     MOCLDY    58  53  84 E8        30.22S
$$

OHZ042-051>053-060>062-070>072-077>081-291100-
  SOUTHWEST OHIO

CITY           SKY/WX    TMP DP  RH WIND       PRES   REMARKS
CINC-COVINGTON PTCLDY    67  65  93 SE3       30.14S
CINC-LUNKEN    MOCLDY    66  66 100 CALM      30.14S FOG
HAMILTON       CLOUDY    68  67  96 CALM      30.14S
DAYTON         RAIN      70  66  87 S10       30.17R FOG
WRIGHT-PAT AFB LGT RAIN  68  65  93 CALM      30.15R
DAYTON GENERAL LGT RAIN  68  66  93 W5        30.15S
WILMINGTON     MOCLDY    67  63  87 CALM      30.16R
$$

OHZ036-037-039>041-045>050-054>059-063>069-073>076-082>088-291100-
  CENTRAL AND SOUTHEAST OHIO

CITY           SKY/WX    TMP DP  RH WIND       PRES   REMARKS
COLUMBUS       CLOUDY    67  62  84 E5        30.15S
OSU AIRPORT    PTCLDY    65  61  87 E3        30.16R
BOLTON FIELD   NOT AVBL
RICKENBACK AFB NOT AVBL
NEWARK         MOCLDY    64  60  87 CALM      30.17S
MARION         PTCLDY    66  59  78 SE7       30.17S
LANCASTER      PTCLDY    64  62  93 CALM      30.17R FOG
ZANESVILLE     NOT AVBL
NEW PHILLY     CLEAR     60  57  89 CALM      30.20S FOG
$$



USA.gov is the U.S. government's official web portal to all federal, state and local government web resources and services.